Madigan Hospital, WA

3:12 AM PST on February 08, 2016 (GMT -0800)
Gray Army Air Field

Weather History for KGRF - January, 2014

Change the Weather History Date:

Friday, January 17, 2014

  Actual Average Record
Temperature  
Mean Temperature 37 °F -  
Max Temperature 39 °F 45 °F 57 °F (2015)
Min Temperature 35 °F 34 °F 22 °F (2013)
Degree Days  
Heating Degree Days 28    
Moisture  
Dew Point 38 °F    
Average Humidity 99    
Maximum Humidity 100    
Minimum Humidity 93    
Precipitation  
Precipitation 0.00 in - - ()
Sea Level Pressure  
Sea Level Pressure 30.26 in    
Wind  
Wind Speed 5 mph (NE)    
Max Wind Speed 8 mph    
Max Gust Speed -    
Visibility 1 miles    
Events Fog    
Averages and records for this station are not official NWS values.
T = Trace of Precipitation, MM = Missing Value Source: NWS Daily Summary

Daily Weather History Graph

Daily Weather History Graph

Search for Another Location

Airport or City:

Trip Planner

Search our weather history database for the weather conditions in past years. The results will help you decide how hot, cold, wet, or windy it might be!

Date:

Astronomy

Jan. 17, 2014 Rise Set
Actual Time 7:50 AM PST 4:50 PM PST
Civil Twilight 7:16 AM PST 5:25 PM PST
Nautical Twilight 6:38 AM PST 6:02 PM PST
Astronomical Twilight 6:02 AM PST 6:39 PM PST
Moon 6:52 PM PST (1/17) 8:12 AM PST (1/17)
Length of Visible Light 10h 08m
Length of Day
9h 00m
Full, 98% of the Moon is Illuminated
Jan 17
Full
Jan 23
Last Quarter
Jan 30
New
Feb 6
First Quarter
Feb 14
Full

Hourly Weather History & Observations

Time (PST) Temp. Windchill Dew Point Humidity Pressure Visibility Wind Dir Wind Speed Gust Speed Precip Events Conditions
12:03 AM 39.2 °F 37.0 °F 39.2 °F 100% 30.35 in 0.5 mi NE 3.5 mph - N/A Fog Fog
12:35 AM 39.2 °F 33.6 °F 39.2 °F 100% 30.34 in 0.5 mi NE 8.1 mph - N/A Fog Fog
12:40 AM 39.2 °F 35.0 °F 39.2 °F 100% 30.34 in 0.8 mi NE 5.8 mph - N/A   Mist
12:50 AM 39.2 °F 37.0 °F 39.2 °F 100% 30.34 in 0.5 mi NE 3.5 mph - N/A Fog Fog
12:58 AM 39.0 °F 35.7 °F 38.8 °F 99% 30.36 in 0.5 mi ENE 4.6 mph - N/A Fog Fog
1:08 AM 39.2 °F 37.0 °F 39.2 °F 100% 30.34 in 0.8 mi ENE 3.5 mph - N/A   Mist
1:38 AM 39.2 °F - 39.2 °F 100% 30.33 in 0.5 mi NNE 2.3 mph - N/A Fog Fog
1:58 AM 39.0 °F 34.8 °F 38.7 °F 99% 30.36 in 0.5 mi North 5.8 mph - N/A Fog Fog
2:08 AM 39.2 °F 35.9 °F 39.2 °F 100% 30.34 in 0.5 mi NNE 4.6 mph - N/A Fog Fog
2:58 AM 38.8 °F 36.5 °F 38.7 °F 99% 30.35 in 0.5 mi NE 3.5 mph - N/A Fog Fog
3:58 AM 39.0 °F - 38.7 °F 99% 30.33 in 0.5 mi ENE 2.3 mph - N/A Fog Fog
4:23 AM 39.2 °F 34.2 °F 39.2 °F 100% 30.31 in 0.5 mi NE 6.9 mph - N/A Fog Fog
4:33 AM 39.2 °F 34.2 °F 39.2 °F 100% 30.31 in 0.5 mi North 6.9 mph - N/A Fog Fog
4:58 AM 38.5 °F 34.1 °F 38.3 °F 99% 30.32 in 0.5 mi North 5.8 mph - N/A Fog Fog
5:08 AM 39.2 °F 37.0 °F 37.4 °F 93% 30.31 in 0.5 mi NNE 3.5 mph - N/A Fog Fog
5:13 AM 39.2 °F 35.0 °F 37.4 °F 93% 30.31 in 0.5 mi North 5.8 mph - N/A Fog Fog
5:23 AM 39.2 °F 35.0 °F 37.4 °F 93% 30.30 in 0.8 mi NNE 5.8 mph - N/A   Mist
5:33 AM 39.2 °F 35.9 °F 37.4 °F 93% 30.31 in 0.8 mi North 4.6 mph - N/A   Mist
5:43 AM 39.2 °F 37.0 °F 39.2 °F 100% 30.30 in 0.8 mi NNE 3.5 mph - N/A   Mist
5:48 AM 39.2 °F 35.0 °F 39.2 °F 100% 30.30 in 0.5 mi NE 5.8 mph - N/A Fog Fog
5:58 AM 38.5 °F 35.0 °F 38.5 °F 100% 30.32 in 0.5 mi NE 4.6 mph - N/A Fog Fog
6:08 AM 39.2 °F 35.9 °F 39.2 °F 100% 30.30 in 0.8 mi NE 4.6 mph - N/A   Mist
6:33 AM 39.2 °F 35.9 °F 39.2 °F 100% 30.29 in 0.8 mi NE 4.6 mph - N/A   Mist
6:38 AM 39.2 °F 35.9 °F 39.2 °F 100% 30.29 in 0.8 mi North 4.6 mph - N/A   Mist
6:43 AM 39.2 °F 35.0 °F 39.2 °F 100% 30.29 in 0.8 mi North 5.8 mph - N/A   Mist
6:48 AM 37.4 °F 33.8 °F 37.4 °F 100% 30.29 in 0.8 mi North 4.6 mph - N/A   Mist
6:53 AM 39.2 °F 37.0 °F 39.2 °F 100% 30.29 in 0.8 mi North 3.5 mph - N/A   Mist
6:58 AM 38.3 °F - 38.3 °F 100% 30.31 in 0.8 mi NNE 2.3 mph - N/A   Mist
7:23 AM 37.4 °F 32.1 °F 37.4 °F 100% 30.29 in 1.0 mi North 6.9 mph - N/A   Mist
7:28 AM 37.4 °F 32.8 °F 37.4 °F 100% 30.29 in 0.8 mi NNE 5.8 mph - N/A   Mist
7:33 AM 37.4 °F 32.1 °F 37.4 °F 100% 30.29 in 0.8 mi NNE 6.9 mph - N/A   Mist
7:38 AM 37.4 °F 33.8 °F 37.4 °F 100% 30.28 in 0.8 mi NNE 4.6 mph - N/A   Mist
7:40 AM 37.4 °F 32.8 °F 37.4 °F 100% 30.28 in 0.8 mi NNE 5.8 mph - N/A   Mist
7:45 AM 37.4 °F 33.8 °F 37.4 °F 100% 30.28 in 0.5 mi NNE 4.6 mph - N/A Fog Fog
7:50 AM 37.4 °F 32.8 °F 37.4 °F 100% 30.28 in 0.2 mi NE 5.8 mph - N/A Fog Fog
7:58 AM 38.1 °F 32.9 °F 38.1 °F 100% 30.30 in 0.2 mi NE 6.9 mph - 0.00 in Fog Fog
8:13 AM 37.4 °F 32.8 °F 37.4 °F 100% 30.29 in 0.2 mi NNE 5.8 mph - N/A Fog Fog
8:18 AM 37.4 °F 33.8 °F 37.4 °F 100% 30.29 in 0.5 mi North 4.6 mph - N/A Fog Fog
8:23 AM 37.4 °F 32.8 °F 37.4 °F 100% 30.29 in 0.5 mi North 5.8 mph - N/A Fog Fog
8:28 AM 37.4 °F 33.8 °F 37.4 °F 100% 30.29 in 0.5 mi NNE 4.6 mph - N/A Fog Fog
8:33 AM 37.4 °F 33.8 °F 37.4 °F 100% 30.29 in 0.2 mi North 4.6 mph - N/A Fog Fog
8:43 AM 37.4 °F 32.8 °F 37.4 °F 100% 30.29 in 0.2 mi North 5.8 mph - N/A Fog Fog
8:54 AM 37.4 °F 33.8 °F 37.4 °F 100% 30.29 in 0.2 mi NE 4.6 mph - N/A Fog Light Drizzle
8:58 AM 37.6 °F 33.1 °F 37.6 °F 100% 30.31 in 0.2 mi NE 5.8 mph - 0.00 in Fog Light Drizzle
9:03 AM 37.4 °F 32.8 °F 37.4 °F 100% 30.29 in 0.2 mi NE 5.8 mph - N/A Fog Fog
9:45 AM 37.4 °F 33.8 °F 37.4 °F 100% 30.29 in 0.2 mi NNE 4.6 mph - N/A Fog Fog
9:55 AM 37.4 °F 34.9 °F 37.4 °F 100% 30.29 in 0.2 mi NNE 3.5 mph - N/A Fog Fog
9:58 AM 37.4 °F 32.8 °F 37.4 °F 100% 30.31 in 0.2 mi NNE 5.8 mph - 0.00 in Fog Fog
10:23 AM 39.2 °F 33.6 °F 39.2 °F 100% 30.29 in 0.5 mi NNE 8.1 mph - N/A Fog Fog
10:33 AM 37.4 °F 32.1 °F 37.4 °F 100% 30.29 in 0.2 mi NNE 6.9 mph - N/A Fog Fog
10:38 AM 37.4 °F 31.4 °F 37.4 °F 100% 30.29 in 0.5 mi North 8.1 mph - N/A Fog Fog
10:53 AM 37.4 °F 31.4 °F 37.4 °F 100% 30.28 in 0.2 mi NNE 8.1 mph - N/A Fog Fog
10:58 AM 37.8 °F 31.8 °F 37.8 °F 100% 30.30 in 0.5 mi North 8.1 mph - N/A Fog Fog
11:03 AM 37.4 °F 32.1 °F 37.4 °F 100% 30.28 in 0.5 mi North 6.9 mph - N/A Fog Fog
11:08 AM 37.4 °F 32.1 °F 37.4 °F 100% 30.28 in 0.5 mi NNE 6.9 mph - N/A Fog Fog
11:13 AM 37.4 °F 32.8 °F 37.4 °F 100% 30.28 in 0.5 mi NNE 5.8 mph - N/A Fog Fog
11:18 AM 37.4 °F 31.4 °F 37.4 °F 100% 30.28 in 0.5 mi NNE 8.1 mph - N/A Fog Fog
11:23 AM 37.4 °F 32.8 °F 37.4 °F 100% 30.28 in 0.5 mi North 5.8 mph - N/A Fog Fog
11:28 AM 37.4 °F 33.8 °F 37.4 °F 100% 30.28 in 0.8 mi Variable 4.6 mph - N/A   Overcast
11:43 AM 39.2 °F 35.9 °F 39.2 °F 100% 30.28 in 0.2 mi NNE 4.6 mph - N/A Fog Fog
11:58 AM 38.7 °F 34.3 °F 38.7 °F 100% 30.29 in 0.2 mi North 5.8 mph - N/A Fog Fog
12:08 PM 39.2 °F 34.2 °F 39.2 °F 100% 30.26 in 0.5 mi NNE 6.9 mph - N/A Fog Fog
12:13 PM 39.2 °F 35.0 °F 39.2 °F 100% 30.26 in 0.8 mi NE 5.8 mph - N/A   Overcast
12:18 PM 39.2 °F 35.0 °F 39.2 °F 100% 30.26 in 1.0 mi NNE 5.8 mph - N/A   Overcast
12:23 PM 39.2 °F 34.2 °F 39.2 °F 100% 30.26 in 1.0 mi NE 6.9 mph - N/A   Overcast
12:28 PM 39.2 °F 35.9 °F 39.2 °F 100% 30.26 in 1.5 mi ENE 4.6 mph - N/A   Overcast
12:33 PM 39.2 °F 35.9 °F 39.2 °F 100% 30.26 in 1.0 mi NE 4.6 mph - N/A   Overcast
12:43 PM 39.2 °F 34.2 °F 39.2 °F 100% 30.25 in 1.0 mi NE 6.9 mph - N/A   Overcast
12:58 PM 38.8 °F 34.6 °F 38.8 °F 100% 30.27 in 0.8 mi NNE 5.8 mph - N/A   Overcast
1:37 PM 39.2 °F 34.2 °F 39.2 °F 100% 30.23 in 0.5 mi NE 6.9 mph - N/A Fog Fog
1:58 PM 39.2 °F 37.0 °F 39.2 °F 100% 29.60 in 0.5 mi NE 3.5 mph - N/A Fog Fog
2:55 PM 39.2 °F 35.9 °F 39.2 °F 100% 30.24 in 0.8 mi NE 4.6 mph - N/A   Overcast
3:56 PM 39.2 °F 35.0 °F 39.2 °F 100% 30.23 in 1.0 mi NE 5.8 mph - N/A   Overcast
4:56 PM 39.2 °F 35.9 °F 37.4 °F 93% 30.23 in 1.0 mi NE 4.6 mph - N/A   Overcast
5:57 PM 37.4 °F - 37.4 °F 100% 30.23 in 1.0 mi ENE 2.3 mph - N/A   Overcast
6:55 PM 37.4 °F 34.9 °F 37.4 °F 100% 30.22 in 1.0 mi ESE 3.5 mph - N/A   Overcast
7:55 PM 37.4 °F 32.8 °F 37.4 °F 100% 30.22 in 0.8 mi SSE 5.8 mph - N/A   Overcast
8:53 PM 37.4 °F - 37.4 °F 100% 30.20 in 1.5 mi SE 2.3 mph - N/A   Overcast
8:58 PM 36.9 °F - 36.7 °F 99% 30.22 in 1.5 mi SSE 2.3 mph - N/A   Overcast
9:03 PM 37.4 °F - 37.4 °F 100% 30.20 in 1.2 mi Calm Calm - N/A   Overcast
9:08 PM 37.4 °F - 37.4 °F 100% 30.20 in 1.5 mi WSW 1.2 mph - N/A   Overcast
9:13 PM 37.4 °F - 35.6 °F 93% 30.21 in 1.2 mi WSW 2.3 mph - N/A   Overcast
9:28 PM 37.4 °F - 35.6 °F 93% 30.21 in 1.0 mi Calm Calm - N/A   Overcast
9:33 PM 37.4 °F - 35.6 °F 93% 30.21 in 1.2 mi Calm Calm - N/A   Overcast
9:43 PM 37.4 °F - 35.6 °F 93% 30.21 in 1.0 mi ENE 2.3 mph - N/A   Overcast
9:53 PM 37.4 °F - 35.6 °F 93% 30.21 in 1.2 mi ENE 2.3 mph - N/A   Overcast
9:58 PM 36.7 °F 34.1 °F 36.5 °F 99% 30.22 in 1.2 mi ENE 3.5 mph - N/A   Overcast
10:03 PM 37.4 °F - 35.6 °F 93% 30.21 in 1.2 mi East 2.3 mph - N/A   Overcast
10:08 PM 35.6 °F 32.8 °F 35.6 °F 100% 30.20 in 1.0 mi SE 3.5 mph - N/A   Overcast
10:28 PM 35.6 °F 31.7 °F 35.6 °F 100% 30.20 in 1.2 mi ESE 4.6 mph - N/A   Overcast
10:38 PM 35.6 °F - 35.6 °F 100% 30.20 in 1.5 mi East 2.3 mph - N/A   Overcast
10:43 PM 35.6 °F - 35.6 °F 100% 30.20 in 1.8 mi Variable 2.3 mph - N/A   Overcast
10:48 PM 35.6 °F 32.8 °F 35.6 °F 100% 30.20 in 1.2 mi SSE 3.5 mph - N/A   Overcast
10:53 PM 35.6 °F 31.7 °F 35.6 °F 100% 30.20 in 1.0 mi SSE 4.6 mph - N/A   Overcast
10:58 PM 35.8 °F 33.0 °F 35.6 °F 99% 30.22 in 1.0 mi SSE 3.5 mph - N/A   Overcast
11:13 PM 35.6 °F 31.7 °F 35.6 °F 100% 30.20 in 0.8 mi South 4.6 mph - N/A   Overcast
11:18 PM 35.6 °F 32.8 °F 35.6 °F 100% 30.20 in 0.8 mi SSE 3.5 mph - N/A   Overcast
11:33 PM 35.6 °F 32.8 °F 35.6 °F 100% 30.20 in 1.0 mi South 3.5 mph - N/A   Overcast
11:48 PM 35.6 °F - 35.6 °F 100% 30.21 in 0.8 mi South 2.3 mph - N/A   Overcast
11:53 PM 35.6 °F - 35.6 °F 100% 30.20 in 1.0 mi Calm Calm - N/A   Overcast
11:58 PM 35.1 °F - 34.9 °F 99% 30.22 in 1.0 mi ENE 1.2 mph - N/A   Overcast